User: anonymous   Login
Location: North Smoke Tower Site
(30.5430°N, 82.3390°W)
Time: 11:40:54
(UTC-05:00)
Language:

Cosmos 1980 Rocket - Orbit

View from above orbital plane
View from above orbital plane
View from above satellite
View from above satellite

Ground track
Ground track

The orbit data is extracted from the following two-line orbital elements,

1 19650U 88102B   14354.83989344 -.00000120  00000-0 -36997-4 0  4577
2 19650 071.0003 127.1079 0012115 131.8861 022.1029 14.15695041347296
Epoch (UTC): 20 December 2014 20:09:26
Eccentricity: 0.0012115
inclination: 71.0003°
perigee height: 831 km
apogee height: 848 km
right ascension of ascending node: 127.1079°
argument of perigee: 131.8861°
revolutions per day: 14.15695041
mean anomaly at epoch: 22.1029°
orbit number at epoch: 34729

The dashed part of the orbit path shows where the satellite is in the earth's shadow,  

DLR